Wind_Speed
11 12 12 12 13 12 12 12 12 13 13 14 14 14 15 14 14 15 15 14 13 13 14 14 14 14 14 14 15 16 16 17 18 19 20 20 19 20 20 21 21 22 22
12 13 13 12 13 13 12 13 13 14 14 14 15 15 15 15 15 15 15 14 14 14 14 14 14 14 14 15 16 16 17 17 18 19 19 19 19 20 21 22 22 23 22
13 13 13 13 13 13 14 14 14 15 15 15 15 16 16 16 16 15 15 15 15 15 15 15 15 15 15 16 16 17 17 18 18 18 18 19 20 21 22 22 23 24 23
14 14 14 14 14 15 15 15 16 16 16 16 16 16 17 17 17 16 16 15 16 15 15 16 16 16 16 17 18 18 18 18 19 19 19 20 21 22 23 24 24 24 24
15 15 15 15 15 16 16 17 17 17 17 17 17 17 17 17 17 17 17 17 17 17 17 17 17 17 17 18 18 19 19 19 20 20 20 22 22 23 24 24 25 25 25
16 16 16 16 17 17 18 18 18 18 18 18 18 18 18 18 18 18 18 18 18 18 18 18 18 18 19 19 20 20 20 20 21 21 21 22 23 24 25 25 26 26 26
17 17 17 17 18 18 19 19 19 19 19 19 19 18 18 18 18 18 18 18 18 18 19 19 19 19 20 20 20 20 21 21 22 23 23 23 24 25 26 27 27 27 27
19 19 19 19 19 19 20 20 19 19 19 19 19 18 18 18 18 18 19 19 19 19 19 20 20 20 20 21 21 22 22 23 23 24 24 25 25 26 27 27 27 27 28
20 21 20 20 20 21 21 20 20 20 19 19 19 19 19 19 18 19 19 19 20 21 21 21 21 21 21 22 22 23 23 24 24 24 25 25 26 26 27 27 27 27 27
22 22 22 21 22 21 21 20 20 20 20 20 19 19 20 20 20 20 20 21 21 21 22 22 22 22 23 23 24 24 24 24 25 25 25 26 26 26 27 26 26 26 27
23 22 22 22 23 22 22 22 21 21 22 21 21 21 21 21 22 21 21 22 22 22 22 23 23 23 24 24 25 25 25 25 25 26 26 26 26 26 26 26 26 27 28
24 23 23 23 23 23 23 23 22 22 22 23 23 23 23 23 22 22 23 23 24 24 24 24 24 24 25 25 25 25 25 25 26 26 26 26 25 26 26 27 27 28 28
25 25 24 24 24 24 24 24 24 23 24 24 24 24 24 23 23 24 25 25 25 25 25 25 25 25 26 25 25 25 26 26 26 26 26 26 26 27 27 28 28 29 29
26 26 25 24 24 25 25 25 25 25 25 25 25 25 24 25 25 26 26 26 26 26 26 26 26 26 25 25 26 26 26 26 26 25 25 26 26 27 27 28 29 29 29
27 26 26 25 26 26 27 27 27 26 26 26 26 26 27 27 27 27 28 28 28 27 27 27 27 27 26 26 26 26 26 26 25 25 26 27 27 28 28 29 30 30 29
27 27 27 27 27 28 27 27 27 28 28 28 28 28 28 29 29 29 29 29 28 28 28 28 28 28 27 26 26 26 25 25 25 26 27 28 28 28 29 30 30 30 30
28 28 28 28 29 29 28 28 29 29 29 29 29 29 30 30 30 30 29 28 28 28 28 28 28 28 27 26 26 25 25 25 26 27 28 28 29 29 30 30 30 30 30
29 30 29 29 29 29 29 29 29 30 30 30 30 30 31 31 30 30 30 29 28 28 28 28 28 27 27 26 26 26 26 26 27 28 29 29 29 29 29 29 30 30 30
31 30 30 29 29 30 30 30 30 30 31 31 30 31 31 30 30 30 29 28 27 27 27 27 27 27 27 27 26 27 27 28 28 29 29 28 29 29 30 30 29 30 30
30 30 30 30 30 31 31 31 31 31 31 30 30 30 30 30 29 29 28 28 27 27 27 27 28 28 28 28 27 28 28 29 29 29 29 29 29 29 30 30 30 30 30
30 30 31 31 32 32 32 32 32 32 31 31 31 30 30 29 28 28 28 27 27 27 28 28 29 29 28 28 28 28 28 29 29 29 29 29 29 30 30 30 30 31 31
32 32 32 33 33 33 33 33 32 32 31 31 31 30 29 29 28 27 27 27 27 28 29 29 30 30 30 29 29 29 29 29 29 29 29 29 30 31 31 31 31 31 31
32 33 33 33 33 33 32 32 32 31 31 30 29 28 28 27 27 26 27 27 28 29 30 30 30 31 30 30 30 30 30 30 30 30 30 30 31 31 32 31 32 32 32
33 33 33 32 32 31 32 31 31 30 30 29 28 28 28 28 28 28 28 28 29 30 31 31 31 31 30 30 30 31 31 30 30 30 31 31 31 31 32 32 32 32 32
32 31 31 31 31 31 31 31 30 30 29 29 28 28 29 29 29 28 29 30 31 31 31 31 31 31 30 30 30 31 30 30 30 31 31 31 32 32 32 32 32 32 32
30 29 29 29 30 31 30 30 29 29 28 28 28 28 29 29 29 29 30 30 31 31 31 31 31 30 30 30 30 30 31 31 31 31 31 32 32 32 32 32 33 33 33
Wind_Direction
344 346 347 348 346 343 345 343 342 341 340 338 336 335 336 334 333 333 331 326 323 320 317 312 306 303 302 302 302 300 298 297 295 291 289 290 292 294 294 292 292 291 289
339 340 342 346 348 347 344 342 340 337 335 333 332 331 331 332 331 330 331 330 327 324 321 318 313 309 305 305 304 304 302 300 299 297 297 298 297 296 297 295 294 293 292
332 333 335 337 339 341 341 341 340 337 333 330 329 328 328 328 326 328 329 327 325 324 323 323 320 316 311 308 306 305 305 306 308 305 304 302 299 297 298 298 297 293 291
326 328 329 330 331 333 332 333 334 333 331 328 328 326 325 325 325 325 325 322 321 323 323 322 319 314 310 308 307 306 306 306 307 308 306 303 302 302 302 300 297 296 295
321 323 325 326 326 327 326 326 329 331 331 328 326 326 323 323 323 323 323 323 320 319 320 320 318 314 312 310 308 307 307 308 309 308 306 305 304 304 302 299 296 297 297
316 318 320 321 322 322 322 324 325 327 329 329 326 325 324 322 321 320 321 322 320 318 317 317 315 314 314 312 310 310 312 311 310 308 308 308 307 304 301 301 300 300 299
311 313 315 316 317 319 321 322 323 324 325 325 323 322 322 321 320 320 320 321 320 318 316 315 315 315 315 314 315 314 312 311 309 310 310 310 309 307 305 304 302 302 301
307 309 311 312 313 315 318 319 320 320 321 321 321 321 321 322 321 317 317 319 320 320 319 318 315 314 314 313 314 312 312 311 311 311 310 310 310 308 307 306 305 304 304
305 306 306 308 309 312 314 315 317 318 321 321 320 321 321 321 321 318 317 316 317 318 318 318 316 314 315 314 313 312 311 311 311 312 312 312 310 310 309 308 307 307 306
301 304 304 304 307 309 311 313 315 317 319 320 319 319 319 318 317 317 317 316 316 316 316 316 315 314 313 312 312 311 311 311 311 311 311 311 310 309 310 309 308 307 307
298 300 302 303 304 306 308 309 310 312 313 314 315 315 316 317 316 315 315 316 315 315 315 314 314 313 311 311 311 310 309 309 309 310 310 310 310 310 310 310 309 309 309
294 296 298 300 301 302 304 306 307 310 311 312 313 314 313 314 314 314 314 314 314 313 313 313 312 312 311 310 310 309 309 309 309 309 310 310 310 311 311 311 311 311 311
292 294 296 296 297 299 301 303 305 307 308 311 310 311 312 312 313 314 314 313 313 313 312 312 312 311 311 311 309 308 308 308 308 309 309 309 310 311 311 311 311 311 310
290 292 294 294 296 298 300 301 302 304 306 309 308 309 310 310 310 312 312 312 313 313 311 310 310 310 309 309 308 307 307 308 308 309 310 311 312 312 312 313 313 313 312
289 290 292 293 295 296 297 300 302 303 306 308 309 308 308 308 308 308 309 310 310 310 309 310 310 310 310 310 310 309 309 308 308 309 311 312 313 313 314 314 314 314 313
287 288 290 291 293 295 298 299 301 303 304 305 305 307 308 307 307 308 308 309 309 308 308 310 311 310 310 310 310 311 310 310 310 311 312 313 313 313 313 314 314 314 314
285 287 288 289 291 295 297 298 299 301 302 302 303 304 305 305 306 307 307 307 307 307 307 308 309 309 310 310 311 311 310 310 310 311 311 312 312 313 313 314 314 315 315
283 286 288 290 291 294 296 297 298 299 300 300 301 303 304 304 304 305 305 305 305 305 305 307 308 309 310 311 311 310 309 309 310 311 311 312 313 314 314 314 314 315 316
282 284 286 288 290 292 295 296 296 298 300 301 301 303 303 304 304 304 304 305 305 305 306 307 308 310 309 309 308 308 308 310 311 312 312 312 313 313 314 314 314 315 315
281 283 284 285 287 289 292 294 296 298 299 300 300 301 302 303 304 304 304 303 303 304 305 307 308 309 309 308 308 308 308 310 311 311 311 312 313 314 315 315 314 314 314
279 281 282 284 285 288 290 292 295 296 297 299 299 300 300 301 302 304 303 302 303 304 306 307 308 309 309 308 308 308 309 309 310 311 311 312 313 314 314 313 314 315 315
277 279 281 283 285 286 288 290 293 295 296 297 298 298 299 300 301 302 302 302 303 304 306 307 308 309 309 308 308 308 308 308 310 311 311 311 312 313 313 313 313 314 314
277 279 280 281 283 284 286 289 292 293 295 297 297 297 298 300 301 301 302 302 303 304 305 306 307 308 308 307 306 307 307 308 309 309 310 311 311 312 313 313 313 313 314
277 279 279 280 280 281 285 288 290 293 294 295 296 297 298 299 300 300 301 302 303 304 305 305 305 307 307 307 307 306 307 308 309 309 308 309 311 312 312 312 312 313 313
276 277 278 279 280 283 286 288 290 292 292 292 295 296 297 298 298 299 300 302 303 305 305 306 307 307 307 307 307 307 307 307 308 308 307 308 310 311 311 311 312 313 312
276 278 278 279 281 282 284 287 290 291 291 293 294 295 296 297 298 299 301 302 303 305 306 307 308 308 307 306 307 306 305 305 305 306 307 308 309 310 310 310 311 311 311
Height
5909 5907 5906 5904 5902 5900 5899 5897 5896 5894 5892 5890 5889 5887 5884 5882 5880 5878 5875 5873 5871 5870 5869 5867 5866 5864 5864 5863 5861 5860 5858 5857 5856 5854 5852 5851 5849 5848 5847 5846 5844 5842 5841
5908 5907 5905 5903 5901 5900 5898 5896 5894 5893 5891 5889 5887 5885 5883 5880 5878 5876 5873 5871 5869 5867 5865 5864 5862 5861 5860 5859 5858 5856 5855 5853 5851 5849 5847 5846 5844 5843 5841 5840 5838 5836 5834
5907 5906 5904 5902 5901 5899 5897 5895 5893 5891 5889 5887 5884 5883 5881 5878 5876 5873 5871 5869 5867 5865 5863 5861 5860 5858 5857 5856 5854 5852 5851 5849 5847 5845 5843 5841 5839 5838 5836 5834 5832 5829 5827
5906 5905 5903 5901 5899 5898 5896 5893 5891 5889 5887 5884 5882 5880 5878 5875 5873 5871 5869 5867 5865 5863 5861 5859 5857 5855 5854 5852 5850 5848 5847 5845 5843 5841 5839 5837 5834 5832 5830 5828 5825 5823 5821
5905 5903 5901 5899 5898 5896 5894 5892 5889 5887 5884 5882 5880 5877 5875 5873 5870 5868 5866 5864 5862 5860 5859 5857 5854 5852 5851 5849 5847 5845 5842 5840 5838 5836 5834 5832 5829 5826 5824 5821 5818 5816 5814
5903 5901 5900 5898 5896 5894 5892 5889 5887 5884 5882 5879 5877 5875 5872 5870 5867 5865 5863 5861 5859 5857 5856 5854 5851 5849 5847 5845 5842 5840 5838 5836 5834 5831 5829 5826 5824 5821 5818 5815 5812 5810 5807
5901 5899 5897 5895 5893 5891 5889 5887 5884 5881 5879 5877 5874 5872 5869 5867 5865 5863 5860 5858 5856 5854 5852 5850 5848 5846 5843 5841 5838 5836 5834 5831 5829 5826 5823 5821 5818 5815 5812 5809 5805 5803 5800
5898 5896 5894 5893 5891 5888 5886 5884 5881 5879 5876 5874 5871 5869 5867 5864 5862 5860 5857 5855 5853 5851 5848 5846 5844 5841 5839 5836 5834 5831 5828 5826 5823 5820 5818 5814 5811 5808 5805 5802 5799 5795 5792
5894 5893 5891 5889 5887 5885 5883 5880 5878 5875 5873 5871 5868 5866 5864 5861 5859 5856 5854 5852 5849 5847 5844 5842 5839 5837 5834 5831 5829 5826 5823 5820 5817 5814 5811 5808 5805 5801 5798 5795 5792 5788 5785
5891 5889 5887 5885 5883 5881 5879 5877 5874 5872 5870 5867 5865 5863 5860 5858 5855 5853 5851 5848 5846 5843 5840 5837 5835 5832 5829 5826 5823 5821 5818 5815 5812 5809 5806 5802 5799 5795 5792 5788 5785 5782 5778
5886 5885 5883 5881 5880 5878 5876 5873 5871 5869 5866 5864 5862 5859 5857 5854 5852 5849 5846 5844 5841 5838 5836 5833 5830 5827 5824 5821 5818 5815 5812 5809 5806 5803 5800 5796 5793 5789 5785 5782 5778 5775 5771
5881 5879 5878 5877 5875 5873 5872 5869 5867 5864 5862 5860 5858 5855 5853 5850 5848 5845 5842 5839 5836 5833 5830 5827 5824 5821 5818 5815 5812 5809 5806 5803 5800 5797 5794 5790 5787 5783 5779 5775 5772 5768 5764
5875 5874 5873 5872 5870 5868 5867 5865 5862 5860 5858 5856 5853 5851 5848 5846 5843 5840 5837 5834 5831 5828 5824 5822 5818 5815 5812 5809 5806 5803 5800 5797 5794 5791 5787 5784 5781 5777 5773 5769 5765 5761 5757
5870 5869 5867 5866 5865 5863 5861 5860 5857 5855 5853 5851 5848 5846 5843 5841 5838 5835 5832 5829 5825 5822 5819 5816 5813 5809 5806 5803 5800 5796 5793 5790 5787 5784 5781 5777 5774 5770 5767 5763 5759 5755 5751
5864 5863 5861 5860 5859 5857 5855 5853 5851 5849 5847 5845 5842 5840 5837 5835 5832 5829 5826 5823 5819 5816 5813 5810 5807 5803 5800 5797 5794 5790 5787 5784 5781 5778 5774 5771 5767 5764 5760 5756 5752 5748 5744
5857 5856 5855 5854 5853 5851 5849 5847 5845 5843 5840 5838 5836 5833 5830 5828 5825 5822 5819 5816 5813 5810 5807 5804 5800 5797 5794 5791 5787 5784 5781 5778 5775 5771 5768 5765 5761 5757 5753 5749 5745 5741 5737
5850 5849 5848 5847 5846 5844 5842 5840 5838 5836 5834 5831 5829 5827 5824 5821 5818 5815 5812 5809 5806 5803 5800 5797 5794 5791 5787 5784 5781 5778 5775 5772 5768 5765 5761 5758 5754 5750 5746 5742 5738 5734 5730
5842 5841 5841 5840 5838 5837 5835 5833 5831 5829 5827 5825 5822 5820 5817 5814 5811 5808 5805 5802 5799 5796 5793 5790 5787 5784 5781 5778 5775 5772 5768 5765 5762 5758 5755 5751 5747 5743 5739 5735 5731 5727 5723
5835 5834 5833 5832 5831 5829 5828 5825 5824 5822 5820 5818 5815 5812 5809 5807 5804 5801 5798 5795 5792 5789 5787 5783 5780 5777 5774 5771 5768 5765 5762 5759 5755 5751 5747 5744 5740 5736 5732 5728 5724 5720 5716
5826 5826 5825 5824 5823 5822 5820 5818 5816 5815 5813 5810 5808 5805 5802 5799 5797 5794 5791 5788 5786 5783 5780 5777 5774 5771 5768 5764 5761 5758 5755 5751 5748 5744 5741 5737 5733 5729 5725 5721 5717 5713 5709
5818 5818 5817 5816 5815 5814 5812 5811 5809 5806 5804 5802 5800 5797 5795 5792 5790 5787 5784 5781 5779 5776 5773 5770 5767 5764 5761 5757 5754 5751 5748 5744 5741 5737 5734 5730 5726 5722 5718 5714 5710 5706 5702
5810 5809 5809 5808 5807 5806 5804 5802 5800 5798 5796 5794 5791 5789 5787 5784 5782 5780 5777 5774 5772 5769 5766 5763 5760 5756 5753 5750 5747 5744 5740 5737 5733 5730 5726 5723 5719 5715 5711 5707 5703 5699 5694
5801 5800 5800 5799 5798 5797 5795 5793 5791 5789 5788 5786 5784 5781 5779 5777 5775 5773 5770 5767 5765 5762 5759 5756 5752 5749 5746 5743 5739 5736 5733 5729 5726 5722 5719 5715 5711 5707 5703 5699 5695 5691 5687
5792 5791 5791 5790 5789 5787 5786 5785 5783 5781 5780 5778 5776 5774 5772 5770 5768 5765 5763 5760 5757 5754 5751 5748 5745 5741 5738 5735 5731 5728 5725 5722 5718 5715 5711 5707 5704 5700 5696 5692 5688 5684 5679
5783 5782 5782 5781 5780 5779 5778 5776 5775 5773 5771 5770 5768 5766 5764 5762 5760 5758 5755 5753 5750 5747 5743 5740 5737 5733 5730 5727 5724 5720 5717 5714 5710 5707 5703 5699 5696 5692 5688 5684 5680 5676 5671
5774 5774 5773 5772 5772 5771 5769 5768 5767 5765 5763 5762 5760 5759 5757 5754 5752 5750 5747 5745 5742 5739 5736 5733 5729 5726 5722 5719 5716 5713 5709 5706 5702 5699 5695 5691 5687 5683 5679 5676 5672 5667 5663